Wetterdaten: Freitag, 24.06.2011
Datum Zeit Temp. A. Temp. A. min Temp. A. max Feuchte A. Bod.Feucht 4 Luftdruck Regen Wind Richtung Richtung Sonnenschein ET Solar Taupunkt Windchill Windben Empfang
24.06.2011 00:02 10,7 C 0,0 C 0,0 C 83 % 0 cb 1018,5 hPa 0,0 l/m 0,0 km/h (0 Bft) N-NW 340 0 min 0,000 mm 0 W/m 7,9 C 10,7 C 0,0 km/h (0 Bft) 0,00 %
24.06.2011 00:07 10,6 C 0,0 C 0,0 C 83 % 0 cb 1018,5 hPa 0,0 l/m 0,0 km/h (0 Bft) W 265 0 min 0,000 mm 0 W/m 7,8 C 10,6 C 0,0 km/h (0 Bft) 0,00 %
24.06.2011 00:12 10,5 C 0,0 C 0,0 C 83 % 0 cb 1018,5 hPa 0,0 l/m 0,0 km/h (0 Bft) N-NW 330 0 min 0,000 mm 0 W/m 7,7 C 10,5 C 0,0 km/h (0 Bft) 0,00 %
24.06.2011 00:17 10,3 C 0,0 C 0,0 C 83 % 0 cb 1018,5 hPa 0,0 l/m 0,0 km/h (0 Bft) W 265 0 min 0,000 mm 0 W/m 7,5 C 10,3 C 0,0 km/h (0 Bft) 0,00 %
24.06.2011 00:22 10,3 C 0,0 C 0,0 C 83 % 0 cb 1018,5 hPa 0,0 l/m 0,0 km/h (0 Bft) SW 225 0 min 0,000 mm 0 W/m 7,5 C 10,3 C 0,0 km/h (0 Bft) 0,00 %
24.06.2011 00:27 10,2 C 0,0 C 0,0 C 83 % 0 cb 1018,5 hPa 0,0 l/m 0,0 km/h (0 Bft) W 275 0 min 0,000 mm 0 W/m 7,4 C 10,2 C 0,0 km/h (0 Bft) 0,00 %
24.06.2011 00:32 10,1 C 0,0 C 0,0 C 83 % 0 cb 1018,5 hPa 0,0 l/m 0,0 km/h (0 Bft) SW 235 0 min 0,000 mm 0 W/m 7,3 C 10,1 C 0,0 km/h (0 Bft) 0,00 %
24.06.2011 00:37 9,9 C 0,0 C 0,0 C 84 % 0 cb 1018,5 hPa 0,0 l/m 0,0 km/h (0 Bft) W-SW 240 0 min 0,000 mm 0 W/m 7,3 C 9,9 C 0,0 km/h (0 Bft) 0,00 %
24.06.2011 00:42 9,8 C 0,0 C 0,0 C 84 % 0 cb 1018,5 hPa 0,0 l/m 0,0 km/h (0 Bft) W-SW 255 0 min 0,000 mm 0 W/m 7,2 C 9,8 C 0,0 km/h (0 Bft) 0,00 %
24.06.2011 00:47 9,6 C 0,0 C 0,0 C 84 % 0 cb 1018,5 hPa 0,0 l/m 0,0 km/h (0 Bft) NW 315 0 min 0,000 mm 0 W/m 7,0 C 9,6 C 0,0 km/h (0 Bft) 0,00 %
24.06.2011 00:52 9,5 C 0,0 C 0,0 C 84 % 0 cb 1018,5 hPa 0,0 l/m 0,0 km/h (0 Bft) NW 325 0 min 0,000 mm 0 W/m 6,9 C 9,5 C 0,0 km/h (0 Bft) 0,00 %
24.06.2011 00:57 9,5 C 0,0 C 0,0 C 84 % 0 cb 1018,5 hPa 0,0 l/m 0,0 km/h (0 Bft) NW 305 0 min 0,000 mm 0 W/m 6,9 C 9,5 C 0,0 km/h (0 Bft) 0,00 %
24.06.2011 01:02 9,7 C 0,0 C 0,0 C 84 % 0 cb 1018,5 hPa 0,0 l/m 0,0 km/h (0 Bft) W-SW 250 0 min 0,000 mm 0 W/m 7,1 C 9,7 C 0,0 km/h (0 Bft) 0,00 %
24.06.2011 01:07 9,8 C 0,0 C 0,0 C 83 % 0 cb 1018,5 hPa 0,0 l/m 0,0 km/h (0 Bft) W 265 0 min 0,000 mm 0 W/m 7,1 C 9,8 C 0,0 km/h (0 Bft) 0,00 %
24.06.2011 01:12 9,6 C 0,0 C 0,0 C 83 % 0 cb 1019,5 hPa 0,0 l/m 0,0 km/h (0 Bft) N-NW 340 0 min 0,000 mm 0 W/m 6,9 C 9,6 C 0,0 km/h (0 Bft) 0,00 %
24.06.2011 01:17 9,6 C 0,0 C 0,0 C 83 % 0 cb 1019,5 hPa 0,0 l/m 0,0 km/h (0 Bft) W-SW 255 0 min 0,000 mm 0 W/m 6,9 C 9,6 C 0,0 km/h (0 Bft) 0,00 %
24.06.2011 01:22 9,4 C 0,0 C 0,0 C 83 % 0 cb 1019,5 hPa 0,0 l/m 0,0 km/h (0 Bft) W-NW 295 0 min 0,000 mm 0 W/m 6,7 C 9,4 C 0,0 km/h (0 Bft) 0,00 %
24.06.2011 01:27 9,3 C 0,0 C 0,0 C 84 % 0 cb 1018,5 hPa 0,0 l/m 0,0 km/h (0 Bft) W 275 0 min 0,000 mm 0 W/m 6,7 C 9,3 C 0,0 km/h (0 Bft) 0,00 %
24.06.2011 01:32 9,4 C 0,0 C 0,0 C 84 % 0 cb 1018,5 hPa 0,0 l/m 0,0 km/h (0 Bft) W-NW 285 0 min 0,000 mm 0 W/m 6,8 C 9,4 C 0,0 km/h (0 Bft) 0,00 %
24.06.2011 01:37 9,4 C 0,0 C 0,0 C 84 % 0 cb 1018,5 hPa 0,0 l/m 0,0 km/h (0 Bft) W 280 0 min 0,000 mm 0 W/m 6,8 C 9,4 C 0,0 km/h (0 Bft) 0,00 %
24.06.2011 01:42 9,3 C 0,0 C 0,0 C 84 % 0 cb 1019,5 hPa 0,0 l/m 0,0 km/h (0 Bft) W 280 0 min 0,000 mm 0 W/m 6,7 C 9,3 C 0,0 km/h (0 Bft) 0,00 %
24.06.2011 01:47 9,3 C 0,0 C 0,0 C 84 % 0 cb 1019,5 hPa 0,0 l/m 0,0 km/h (0 Bft) W 280 0 min 0,000 mm 0 W/m 6,7 C 9,3 C 0,0 km/h (0 Bft) 0,00 %
24.06.2011 01:52 9,3 C 0,0 C 0,0 C 84 % 0 cb 1019,5 hPa 0,0 l/m 0,0 km/h (0 Bft) SW 215 0 min 0,000 mm 0 W/m 6,7 C 9,3 C 0,0 km/h (0 Bft) 0,00 %
24.06.2011 01:57 9,4 C 0,0 C 0,0 C 84 % 0 cb 1019,5 hPa 0,0 l/m 0,0 km/h (0 Bft) S-SW 205 0 min 0,000 mm 0 W/m 6,8 C 9,4 C 0,0 km/h (0 Bft) 0,00 %
24.06.2011 02:02 9,4 C 0,0 C 0,0 C 84 % 0 cb 1019,5 hPa 0,0 l/m 0,0 km/h (0 Bft) S-SW 205 0 min 0,000 mm 0 W/m 6,8 C 9,4 C 0,0 km/h (0 Bft) 0,00 %
24.06.2011 02:07 9,3 C 0,0 C 0,0 C 84 % 0 cb 1019,5 hPa 0,0 l/m 0,0 km/h (0 Bft) S-SW 205 0 min 0,000 mm 0 W/m 6,7 C 9,3 C 0,0 km/h (0 Bft) 0,00 %
24.06.2011 02:12 9,4 C 0,0 C 0,0 C 84 % 0 cb 1018,5 hPa 0,0 l/m 0,0 km/h (0 Bft) W 265 0 min 0,000 mm 0 W/m 6,8 C 9,4 C 0,0 km/h (0 Bft) 0,00 %
24.06.2011 02:17 9,5 C 0,0 C 0,0 C 84 % 0 cb 1018,5 hPa 0,0 l/m 0,0 km/h (0 Bft) W 275 0 min 0,000 mm 0 W/m 6,9 C 9,5 C 0,0 km/h (0 Bft) 0,00 %
24.06.2011 02:22 9,5 C 0,0 C 0,0 C 84 % 0 cb 1018,5 hPa 0,0 l/m 0,0 km/h (0 Bft) W-NW 285 0 min 0,000 mm 0 W/m 6,9 C 9,5 C 0,0 km/h (0 Bft) 0,00 %
24.06.2011 02:27 9,4 C 0,0 C 0,0 C 84 % 0 cb 1019,5 hPa 0,0 l/m 0,0 km/h (0 Bft) W-NW 285 0 min 0,000 mm 0 W/m 6,8 C 9,4 C 0,0 km/h (0 Bft) 0,00 %
24.06.2011 02:32 9,3 C 0,0 C 0,0 C 84 % 0 cb 1019,5 hPa 0,0 l/m 0,0 km/h (0 Bft) W 270 0 min 0,000 mm 0 W/m 6,7 C 9,3 C 0,0 km/h (0 Bft) 0,00 %
24.06.2011 02:37 9,5 C 0,0 C 0,0 C 84 % 0 cb 1019,5 hPa 0,0 l/m 0,0 km/h (0 Bft) W 270 0 min 0,000 mm 0 W/m 6,9 C 9,5 C 0,0 km/h (0 Bft) 0,00 %
24.06.2011 02:42 9,6 C 0,0 C 0,0 C 84 % 0 cb 1018,5 hPa 0,0 l/m 0,0 km/h (0 Bft) NW 320 0 min 0,000 mm 0 W/m 7,0 C 9,6 C 0,0 km/h (0 Bft) 0,00 %
24.06.2011 02:47 9,9 C 0,0 C 0,0 C 83 % 0 cb 1018,5 hPa 0,0 l/m 0,0 km/h (0 Bft) W-SW 245 0 min 0,000 mm 0 W/m 7,2 C 9,9 C 0,0 km/h (0 Bft) 0,00 %
24.06.2011 02:52 10,0 C 0,0 C 0,0 C 83 % 0 cb 1018,5 hPa 0,0 l/m 0,0 km/h (0 Bft) W 260 0 min 0,000 mm 0 W/m 7,2 C 10,0 C 0,0 km/h (0 Bft) 0,00 %
24.06.2011 02:57 9,9 C 0,0 C 0,0 C 83 % 0 cb 1019,5 hPa 0,0 l/m 0,0 km/h (0 Bft) W 270 0 min 0,000 mm 0 W/m 7,2 C 9,9 C 0,0 km/h (0 Bft) 0,00 %
24.06.2011 03:02 9,9 C 0,0 C 0,0 C 83 % 0 cb 1019,5 hPa 0,0 l/m 0,0 km/h (0 Bft) W-SW 255 0 min 0,000 mm 0 W/m 7,2 C 9,9 C 0,0 km/h (0 Bft) 0,00 %
24.06.2011 03:07 9,8 C 0,0 C 0,0 C 83 % 0 cb 1019,5 hPa 0,0 l/m 0,0 km/h (0 Bft) W 265 0 min 0,000 mm 0 W/m 7,1 C 9,8 C 0,0 km/h (0 Bft) 0,00 %
24.06.2011 03:12 9,6 C 0,0 C 0,0 C 83 % 0 cb 1019,5 hPa 0,0 l/m 0,0 km/h (0 Bft) SW 235 0 min 0,000 mm 0 W/m 6,9 C 9,6 C 0,0 km/h (0 Bft) 0,00 %
24.06.2011 03:17 9,4 C 0,0 C 0,0 C 83 % 0 cb 1019,5 hPa 0,0 l/m 0,0 km/h (0 Bft) W-SW 245 0 min 0,000 mm 0 W/m 6,7 C 9,4 C 0,0 km/h (0 Bft) 0,00 %
24.06.2011 03:22 9,2 C 0,0 C 0,0 C 83 % 0 cb 1019,5 hPa 0,0 l/m 0,0 km/h (0 Bft) N-NW 330 0 min 0,000 mm 0 W/m 6,5 C 9,2 C 0,0 km/h (0 Bft) 0,00 %
24.06.2011 03:27 9,0 C 0,0 C 0,0 C 84 % 0 cb 1019,5 hPa 0,0 l/m 0,0 km/h (0 Bft) NW 310 0 min 0,000 mm 0 W/m 6,4 C 9,0 C 0,0 km/h (0 Bft) 0,00 %
24.06.2011 03:32 8,7 C 0,0 C 0,0 C 84 % 0 cb 1019,5 hPa 0,0 l/m 0,0 km/h (0 Bft) NW 310 0 min 0,000 mm 0 W/m 6,2 C 8,7 C 0,0 km/h (0 Bft) 0,00 %
24.06.2011 03:37 8,4 C 0,0 C 0,0 C 84 % 0 cb 1019,5 hPa 0,0 l/m 0,0 km/h (0 Bft) NW 310 0 min 0,000 mm 0 W/m 5,9 C 8,4 C 0,0 km/h (0 Bft) 0,00 %
24.06.2011 03:42 8,2 C 0,0 C 0,0 C 84 % 0 cb 1019,5 hPa 0,0 l/m 0,0 km/h (0 Bft) NW 310 0 min 0,000 mm 0 W/m 5,7 C 8,2 C 0,0 km/h (0 Bft) 0,00 %
24.06.2011 03:47 8,1 C 0,0 C 0,0 C 85 % 0 cb 1019,5 hPa 0,0 l/m 0,0 km/h (0 Bft) NW 310 0 min 0,000 mm 0 W/m 5,7 C 8,1 C 0,0 km/h (0 Bft) 0,00 %
24.06.2011 03:52 8,1 C 0,0 C 0,0 C 85 % 0 cb 1019,5 hPa 0,0 l/m 0,0 km/h (0 Bft) NW 310 0 min 0,000 mm 0 W/m 5,7 C 8,1 C 0,0 km/h (0 Bft) 0,00 %
24.06.2011 03:57 7,9 C 0,0 C 0,0 C 85 % 0 cb 1019,5 hPa 0,0 l/m 0,0 km/h (0 Bft) NW 310 0 min 0,000 mm 0 W/m 5,5 C 7,9 C 0,0 km/h (0 Bft) 0,00 %
24.06.2011 04:02 7,8 C 0,0 C 0,0 C 85 % 0 cb 1019,5 hPa 0,0 l/m 0,0 km/h (0 Bft) NW 310 0 min 0,000 mm 0 W/m 5,4 C 7,8 C 0,0 km/h (0 Bft) 0,00 %
24.06.2011 04:07 7,6 C 0,0 C 0,0 C 85 % 0 cb 1019,5 hPa 0,0 l/m 0,0 km/h (0 Bft) NW 310 0 min 0,000 mm 0 W/m 5,2 C 7,6 C 0,0 km/h (0 Bft) 0,00 %
24.06.2011 04:12 7,5 C 0,0 C 0,0 C 85 % 0 cb 1019,5 hPa 0,0 l/m 0,0 km/h (0 Bft) NW 310 0 min 0,000 mm 0 W/m 5,1 C 7,5 C 0,0 km/h (0 Bft) 0,00 %
24.06.2011 04:17 7,4 C 0,0 C 0,0 C 86 % 0 cb 1019,5 hPa 0,0 l/m 0,0 km/h (0 Bft) NW 310 0 min 0,000 mm 0 W/m 5,2 C 7,4 C 0,0 km/h (0 Bft) 0,00 %
24.06.2011 04:22 7,3 C 0,0 C 0,0 C 86 % 0 cb 1019,5 hPa 0,3 l/m 0,0 km/h (0 Bft) NW 310 0 min 0,000 mm 0 W/m 5,1 C 7,3 C 0,0 km/h (0 Bft) 0,00 %
24.06.2011 04:27 7,3 C 0,0 C 0,0 C 86 % 0 cb 1019,5 hPa 0,0 l/m 0,0 km/h (0 Bft) NW 310 0 min 0,000 mm 0 W/m 5,1 C 7,3 C 0,0 km/h (0 Bft) 0,00 %
24.06.2011 04:32 7,1 C 0,0 C 0,0 C 85 % 0 cb 1019,5 hPa 0,0 l/m 0,0 km/h (0 Bft) NW 310 0 min 0,000 mm 0 W/m 4,8 C 7,1 C 0,0 km/h (0 Bft) 0,00 %
24.06.2011 04:37 7,1 C 0,0 C 0,0 C 85 % 0 cb 1019,5 hPa 0,0 l/m 0,0 km/h (0 Bft) NW 310 0 min 0,000 mm 0 W/m 4,8 C 7,1 C 0,0 km/h (0 Bft) 0,00 %
24.06.2011 04:42 7,2 C 0,0 C 0,0 C 85 % 0 cb 1019,5 hPa 0,0 l/m 0,0 km/h (0 Bft) NW 310 0 min 0,000 mm 0 W/m 4,9 C 7,2 C 0,0 km/h (0 Bft) 0,00 %
24.06.2011 04:47 7,1 C 0,0 C 0,0 C 86 % 0 cb 1019,5 hPa 0,0 l/m 0,0 km/h (0 Bft) NW 315 0 min 0,000 mm 0 W/m 4,9 C 7,1 C 0,0 km/h (0 Bft) 0,00 %
24.06.2011 04:52 7,3 C 0,0 C 0,0 C 86 % 0 cb 1019,5 hPa 0,0 l/m 0,0 km/h (0 Bft) SW 235 0 min 0,000 mm 0 W/m 5,1 C 7,3 C 0,0 km/h (0 Bft) 0,00 %
24.06.2011 04:57 7,3 C 0,0 C 0,0 C 86 % 0 cb 1019,5 hPa 0,0 l/m 0,0 km/h (0 Bft) O-NO 75 0 min 0,000 mm 0 W/m 5,1 C 7,3 C 0,0 km/h (0 Bft) 0,00 %
24.06.2011 05:02 7,2 C 0,0 C 0,0 C 86 % 0 cb 1019,5 hPa 0,0 l/m 0,0 km/h (0 Bft) O-NO 65 0 min 0,000 mm 0 W/m 5,0 C 7,2 C 0,0 km/h (0 Bft) 0,00 %
24.06.2011 05:07 7,1 C 0,0 C 0,0 C 86 % 0 cb 1019,5 hPa 0,0 l/m 0,0 km/h (0 Bft) NO 35 0 min 0,000 mm 0 W/m 4,9 C 7,1 C 0,0 km/h (0 Bft) 0,00 %
24.06.2011 05:12 7,0 C 0,0 C 0,0 C 86 % 0 cb 1020,5 hPa 0,0 l/m 0,0 km/h (0 Bft) NO 35 0 min 0,000 mm 0 W/m 4,8 C 7,0 C 0,0 km/h (0 Bft) 0,00 %
24.06.2011 05:17 7,3 C 0,0 C 0,0 C 86 % 0 cb 1020,5 hPa 0,0 l/m 0,0 km/h (0 Bft) O-NO 60 0 min 0,000 mm 0 W/m 5,1 C 7,3 C 0,0 km/h (0 Bft) 0,00 %
24.06.2011 05:22 7,3 C 0,0 C 0,0 C 86 % 0 cb 1020,5 hPa 0,0 l/m 0,0 km/h (0 Bft) NO 55 0 min 0,000 mm 0 W/m 5,1 C 7,3 C 0,0 km/h (0 Bft) 0,00 %
24.06.2011 05:27 7,1 C 0,0 C 0,0 C 86 % 0 cb 1020,5 hPa 0,0 l/m 0,0 km/h (0 Bft) N-NO 25 0 min 0,000 mm 0 W/m 4,9 C 7,1 C 0,0 km/h (0 Bft) 0,00 %
24.06.2011 05:32 7,1 C 0,0 C 0,0 C 86 % 0 cb 1020,5 hPa 0,0 l/m 0,0 km/h (0 Bft) O 90 0 min 0,000 mm 0 W/m 4,9 C 7,1 C 0,0 km/h (0 Bft) 0,00 %
24.06.2011 05:37 6,9 C 0,0 C 0,0 C 86 % 0 cb 1020,5 hPa 0,0 l/m 0,0 km/h (0 Bft) O-NO 75 0 min 0,000 mm 0 W/m 4,7 C 6,9 C 0,0 km/h (0 Bft) 0,00 %
24.06.2011 05:42 6,9 C 0,0 C 0,0 C 86 % 0 cb 1019,5 hPa 0,0 l/m 0,0 km/h (0 Bft) NO 55 0 min 0,000 mm 0 W/m 4,7 C 6,9 C 0,0 km/h (0 Bft) 0,00 %
24.06.2011 05:47 6,7 C 0,0 C 0,0 C 86 % 0 cb 1019,5 hPa 0,0 l/m 0,0 km/h (0 Bft) O-SO 115 0 min 0,000 mm 0 W/m 4,5 C 6,7 C 0,0 km/h (0 Bft) 0,00 %
24.06.2011 05:52 6,7 C 0,0 C 0,0 C 86 % 0 cb 1019,5 hPa 0,0 l/m 0,0 km/h (0 Bft) NW 305 0 min 0,000 mm 0 W/m 4,5 C 6,7 C 0,0 km/h (0 Bft) 0,00 %
24.06.2011 05:57 6,5 C 0,0 C 0,0 C 86 % 0 cb 1020,5 hPa 0,0 l/m 0,0 km/h (0 Bft) N-NO 30 0 min 0,000 mm 0 W/m 4,3 C 6,5 C 0,0 km/h (0 Bft) 0,00 %
24.06.2011 06:02 6,4 C 0,0 C 0,0 C 86 % 0 cb 1020,5 hPa 0,0 l/m 0,0 km/h (0 Bft) N-NO 30 0 min 0,000 mm 0 W/m 4,2 C 6,4 C 0,0 km/h (0 Bft) 0,00 %
24.06.2011 06:07 6,6 C 0,0 C 0,0 C 86 % 0 cb 1020,5 hPa 0,0 l/m 0,0 km/h (0 Bft) N-NW 335 0 min 0,000 mm 0 W/m 4,4 C 6,6 C 0,0 km/h (0 Bft) 0,00 %
24.06.2011 06:12 6,7 C 0,0 C 0,0 C 86 % 0 cb 1020,5 hPa 0,0 l/m 0,0 km/h (0 Bft) O-SO 120 0 min 0,000 mm 0 W/m 4,5 C 6,7 C 0,0 km/h (0 Bft) 0,00 %
24.06.2011 06:17 6,5 C 0,0 C 0,0 C 86 % 0 cb 1020,5 hPa 0,0 l/m 0,0 km/h (0 Bft) NW 325 0 min 0,000 mm 0 W/m 4,3 C 6,5 C 0,0 km/h (0 Bft) 0,00 %
24.06.2011 06:22 6,4 C 0,0 C 0,0 C 87 % 0 cb 1020,5 hPa 0,0 l/m 0,0 km/h (0 Bft) NW 325 0 min 0,000 mm 0 W/m 4,4 C 6,4 C 0,0 km/h (0 Bft) 0,00 %
24.06.2011 06:27 6,5 C 0,0 C 0,0 C 87 % 0 cb 1019,5 hPa 0,0 l/m 0,0 km/h (0 Bft) NW 325 0 min 0,000 mm 0 W/m 4,5 C 6,5 C 0,0 km/h (0 Bft) 0,00 %
24.06.2011 06:32 6,4 C 0,0 C 0,0 C 87 % 0 cb 1019,5 hPa 0,0 l/m 0,0 km/h (0 Bft) NW 325 0 min 0,000 mm 0 W/m 4,4 C 6,4 C 0,0 km/h (0 Bft) 0,00 %
24.06.2011 06:37 6,5 C 0,0 C 0,0 C 87 % 0 cb 1019,5 hPa 0,0 l/m 0,0 km/h (0 Bft) NW 325 0 min 0,000 mm 0 W/m 4,5 C 6,5 C 0,0 km/h (0 Bft) 0,00 %
24.06.2011 06:42 6,7 C 0,0 C 0,0 C 87 % 0 cb 1020,5 hPa 0,0 l/m 0,0 km/h (0 Bft) NW 325 0 min 0,000 mm 0 W/m 4,7 C 6,7 C 0,0 km/h (0 Bft) 0,00 %
24.06.2011 06:47 6,9 C 0,0 C 0,0 C 87 % 0 cb 1020,5 hPa 0,0 l/m 0,0 km/h (0 Bft) NW 325 0 min 0,000 mm 0 W/m 4,9 C 6,9 C 0,0 km/h (0 Bft) 0,00 %
24.06.2011 06:52 7,1 C 0,0 C 0,0 C 86 % 0 cb 1020,5 hPa 0,0 l/m 0,0 km/h (0 Bft) S 175 0 min 0,000 mm 0 W/m 4,9 C 7,1 C 0,0 km/h (0 Bft) 0,00 %
24.06.2011 06:57 7,3 C 0,0 C 0,0 C 86 % 0 cb 1020,5 hPa 0,0 l/m 0,0 km/h (0 Bft) S 175 0 min 0,000 mm 0 W/m 5,1 C 7,3 C 0,0 km/h (0 Bft) 0,00 %
24.06.2011 07:02 7,6 C 0,0 C 0,0 C 86 % 0 cb 1020,5 hPa 0,0 l/m 0,0 km/h (0 Bft) S-SO 165 0 min 0,000 mm 0 W/m 5,4 C 7,6 C 0,0 km/h (0 Bft) 0,00 %
24.06.2011 07:07 7,9 C 0,0 C 0,0 C 86 % 0 cb 1020,5 hPa 0,0 l/m 0,0 km/h (0 Bft) S-SO 165 0 min 0,000 mm 0 W/m 5,7 C 7,9 C 0,0 km/h (0 Bft) 0,00 %
24.06.2011 07:12 8,2 C 0,0 C 0,0 C 87 % 0 cb 1020,5 hPa 0,0 l/m 0,0 km/h (0 Bft) S 170 0 min 0,000 mm 0 W/m 6,2 C 8,2 C 0,0 km/h (0 Bft) 0,00 %
24.06.2011 07:17 8,1 C 0,0 C 0,0 C 87 % 4 cb 1020,5 hPa 0,0 l/m 0,0 km/h (0 Bft) S 175 0 min 0,000 mm 0 W/m 6,1 C 8,1 C 0,0 km/h (0 Bft) 0,00 %
24.06.2011 07:22 8,2 C 0,0 C 0,0 C 87 % 5 cb 1020,5 hPa 0,0 l/m 0,0 km/h (0 Bft) S 185 0 min 0,000 mm 0 W/m 6,2 C 8,2 C 0,0 km/h (0 Bft) 0,00 %
24.06.2011 07:27 8,4 C 0,0 C 0,0 C 86 % 4 cb 1020,5 hPa 0,0 l/m 0,0 km/h (0 Bft) S-SO 150 0 min 0,000 mm 0 W/m 6,2 C 8,4 C 0,0 km/h (0 Bft) 0,00 %
24.06.2011 07:32 8,7 C 0,0 C 0,0 C 86 % 6 cb 1020,5 hPa 0,0 l/m 0,0 km/h (0 Bft) S-SW 210 0 min 0,000 mm 0 W/m 6,5 C 8,7 C 0,0 km/h (0 Bft) 0,00 %
24.06.2011 07:37 9,0 C 0,0 C 0,0 C 86 % 5 cb 1020,5 hPa 0,0 l/m 0,0 km/h (0 Bft) SW 230 0 min 0,000 mm 0 W/m 6,8 C 9,0 C 0,0 km/h (0 Bft) 0,00 %
24.06.2011 07:42 9,4 C 0,0 C 0,0 C 85 % 5 cb 1021,5 hPa 0,0 l/m 0,0 km/h (0 Bft) S-SW 195 0 min 0,000 mm 0 W/m 7,0 C 9,4 C 0,0 km/h (0 Bft) 0,00 %
24.06.2011 07:47 9,7 C 0,0 C 0,0 C 85 % 5 cb 1021,5 hPa 0,0 l/m 0,0 km/h (0 Bft) S-SO 155 0 min 0,000 mm 0 W/m 7,3 C 9,7 C 0,0 km/h (0 Bft) 0,00 %
24.06.2011 07:52 10,0 C 0,0 C 0,0 C 85 % 5 cb 1021,5 hPa 0,0 l/m 0,0 km/h (0 Bft) W-SW 255 0 min 0,000 mm 0 W/m 7,6 C 10,0 C 0,0 km/h (0 Bft) 0,00 %
24.06.2011 07:57 10,3 C 0,0 C 0,0 C 84 % 5 cb 1021,5 hPa 0,0 l/m 0,0 km/h (0 Bft) N-NO 30 0 min 0,000 mm 0 W/m 7,7 C 10,3 C 0,0 km/h (0 Bft) 0,00 %
24.06.2011 08:02 10,5 C 0,0 C 0,0 C 83 % 5 cb 1021,5 hPa 0,0 l/m 6,1 km/h (2 Bft) SW 235 0 min 0,000 mm 0 W/m 7,7 C 10,5 C 6,1 km/h (2 Bft) 0,00 %
24.06.2011 08:07 10,6 C 0,0 C 0,0 C 82 % 3 cb 1021,5 hPa 0,0 l/m 6,1 km/h (2 Bft) W-SW 245 0 min 0,000 mm 0 W/m 7,7 C 10,6 C 6,1 km/h (2 Bft) 0,00 %
24.06.2011 08:12 10,8 C 0,0 C 0,0 C 81 % 7 cb 1020,5 hPa 0,0 l/m 12,1 km/h (2 Bft) SW 230 0 min 0,000 mm 0 W/m 7,7 C 10,8 C 12,1 km/h (2 Bft) 0,00 %
24.06.2011 08:17 10,9 C 0,0 C 0,0 C 80 % 5 cb 1020,5 hPa 0,0 l/m 10,3 km/h (2 Bft) W-NW 290 0 min 0,000 mm 0 W/m 7,6 C 10,9 C 10,3 km/h (2 Bft) 0,00 %
24.06.2011 08:22 10,9 C 0,0 C 0,0 C 79 % 5 cb 1020,5 hPa 0,0 l/m 8,5 km/h (2 Bft) W-SW 245 0 min 0,000 mm 0 W/m 7,4 C 10,9 C 8,5 km/h (2 Bft) 0,00 %
24.06.2011 08:27 11,0 C 0,0 C 0,0 C 79 % 3 cb 1020,5 hPa 0,0 l/m 8,5 km/h (2 Bft) W-NW 285 0 min 0,000 mm 0 W/m 7,5 C 11,0 C 8,5 km/h (2 Bft) 0,00 %
24.06.2011 08:32 11,3 C 0,0 C 0,0 C 79 % 5 cb 1020,5 hPa 0,0 l/m 7,9 km/h (2 Bft) S-SW 205 0 min 0,000 mm 0 W/m 7,8 C 11,3 C 7,9 km/h (2 Bft) 0,00 %
24.06.2011 08:37 11,3 C 0,0 C 0,0 C 77 % 7 cb 1020,5 hPa 0,0 l/m 12,4 km/h (3 Bft) W-SW 255 0 min 0,000 mm 0 W/m 7,4 C 11,3 C 12,4 km/h (3 Bft) 0,00 %
24.06.2011 08:42 11,6 C 0,0 C 0,0 C 77 % 6 cb 1020,5 hPa 0,0 l/m 10,0 km/h (2 Bft) W 280 0 min 0,000 mm 0 W/m 7,7 C 11,6 C 10,0 km/h (2 Bft) 0,00 %
24.06.2011 08:47 11,8 C 0,0 C 0,0 C 77 % 4 cb 1020,5 hPa 0,0 l/m 5,7 km/h (1 Bft) S 190 0 min 0,000 mm 0 W/m 7,9 C 11,8 C 5,7 km/h (1 Bft) 0,00 %
24.06.2011 08:52 11,8 C 0,0 C 0,0 C 77 % 3 cb 1020,5 hPa 0,0 l/m 7,6 km/h (2 Bft) N 0 0 min 0,000 mm 0 W/m 7,9 C 11,8 C 7,6 km/h (2 Bft) 0,00 %
24.06.2011 08:57 12,0 C 0,0 C 0,0 C 76 % 7 cb 1020,5 hPa 0,0 l/m 7,9 km/h (2 Bft) NW 320 0 min 0,000 mm 0 W/m 7,9 C 12,0 C 7,9 km/h (2 Bft) 0,00 %
24.06.2011 09:02 12,0 C 0,0 C 0,0 C 75 % 3 cb 1020,5 hPa 0,0 l/m 10,0 km/h (2 Bft) S-SW 210 0 min 0,000 mm 0 W/m 7,7 C 12,0 C 10,0 km/h (2 Bft) 0,00 %
24.06.2011 09:07 12,0 C 0,0 C 0,0 C 74 % 6 cb 1020,5 hPa 0,0 l/m 11,8 km/h (2 Bft) W-NW 300 0 min 0,000 mm 0 W/m 7,5 C 12,0 C 11,8 km/h (2 Bft) 0,00 %
24.06.2011 09:12 12,4 C 0,0 C 0,0 C 74 % 4 cb 1020,5 hPa 0,0 l/m 9,1 km/h (2 Bft) S 185 0 min 0,000 mm 0 W/m 7,9 C 12,4 C 9,1 km/h (2 Bft) 0,00 %
24.06.2011 09:17 12,2 C 0,0 C 0,0 C 73 % 6 cb 1020,5 hPa 0,0 l/m 11,2 km/h (2 Bft) SO 130 0 min 0,000 mm 0 W/m 7,5 C 12,2 C 11,2 km/h (2 Bft) 0,00 %
24.06.2011 09:22 12,5 C 0,0 C 0,0 C 73 % 5 cb 1020,5 hPa 0,0 l/m 7,9 km/h (2 Bft) SW 235 0 min 0,000 mm 0 W/m 7,8 C 12,5 C 7,9 km/h (2 Bft) 0,00 %
24.06.2011 09:27 12,4 C 0,0 C 0,0 C 71 % 5 cb 1020,5 hPa 0,0 l/m 14,5 km/h (3 Bft) W 260 0 min 0,000 mm 0 W/m 7,3 C 12,4 C 14,5 km/h (3 Bft) 0,00 %
24.06.2011 09:32 12,7 C 0,0 C 0,0 C 71 % 5 cb 1020,5 hPa 0,0 l/m 10,6 km/h (2 Bft) W-SW 255 0 min 0,000 mm 0 W/m 7,6 C 12,7 C 10,6 km/h (2 Bft) 0,00 %
24.06.2011 09:37 12,7 C 0,0 C 0,0 C 71 % 5 cb 1020,5 hPa 0,0 l/m 12,7 km/h (3 Bft) S 180 0 min 0,000 mm 0 W/m 7,6 C 12,7 C 12,7 km/h (3 Bft) 0,00 %
24.06.2011 09:42 13,0 C 0,0 C 0,0 C 70 % 5 cb 1020,5 hPa 0,0 l/m 15,4 km/h (3 Bft) S-SW 210 0 min 0,000 mm 0 W/m 7,7 C 13,0 C 15,4 km/h (3 Bft) 0,00 %
24.06.2011 09:47 13,2 C 0,0 C 0,0 C 70 % 5 cb 1020,5 hPa 0,0 l/m 12,7 km/h (3 Bft) W 265 0 min 0,000 mm 0 W/m 7,9 C 13,2 C 12,7 km/h (3 Bft) 0,00 %
24.06.2011 09:52 13,4 C 0,0 C 0,0 C 69 % 5 cb 1020,5 hPa 0,0 l/m 12,4 km/h (3 Bft) W-NW 295 0 min 0,000 mm 0 W/m 7,8 C 13,4 C 12,4 km/h (3 Bft) 0,00 %
24.06.2011 09:57 13,5 C 0,0 C 0,0 C 69 % 5 cb 1020,5 hPa 0,0 l/m 11,2 km/h (2 Bft) W 270 0 min 0,000 mm 0 W/m 7,9 C 13,5 C 11,2 km/h (2 Bft) 0,00 %
24.06.2011 10:02 13,5 C 0,0 C 0,0 C 68 % 4 cb 1020,5 hPa 0,0 l/m 12,4 km/h (3 Bft) W 270 0 min 0,000 mm 0 W/m 7,7 C 13,5 C 12,4 km/h (3 Bft) 0,00 %
24.06.2011 10:07 13,8 C 0,0 C 0,0 C 67 % 5 cb 1020,5 hPa 0,0 l/m 8,2 km/h (2 Bft) SW 235 0 min 0,000 mm 0 W/m 7,8 C 13,8 C 8,2 km/h (2 Bft) 0,00 %
24.06.2011 10:12 13,9 C 0,0 C 0,0 C 67 % 5 cb 1020,5 hPa 0,0 l/m 12,1 km/h (2 Bft) W-NW 295 0 min 0,000 mm 0 W/m 7,9 C 13,9 C 12,1 km/h (2 Bft) 0,00 %
24.06.2011 10:17 13,9 C 0,0 C 0,0 C 67 % 5 cb 1020,5 hPa 0,0 l/m 13,3 km/h (3 Bft) NW 305 0 min 0,000 mm 0 W/m 7,9 C 13,9 C 13,3 km/h (3 Bft) 0,00 %
24.06.2011 10:22 13,8 C 0,0 C 0,0 C 67 % 2 cb 1020,5 hPa 0,0 l/m 12,4 km/h (3 Bft) S 190 0 min 0,000 mm 0 W/m 7,8 C 13,8 C 12,4 km/h (3 Bft) 0,00 %
24.06.2011 10:27 14,1 C 0,0 C 0,0 C 67 % 8 cb 1020,5 hPa 0,0 l/m 20,6 km/h (4 Bft) W 275 0 min 0,000 mm 0 W/m 8,1 C 14,1 C 20,6 km/h (4 Bft) 0,00 %
24.06.2011 10:32 13,8 C 0,0 C 0,0 C 66 % 5 cb 1020,5 hPa 0,0 l/m 23,9 km/h (4 Bft) W-SW 255 0 min 0,000 mm 0 W/m 7,6 C 13,8 C 23,9 km/h (4 Bft) 0,00 %
24.06.2011 10:37 14,2 C 0,0 C 0,0 C 65 % 4 cb 1020,5 hPa 0,0 l/m 16,0 km/h (3 Bft) N-NO 15 0 min 0,000 mm 0 W/m 7,7 C 14,2 C 16,0 km/h (3 Bft) 0,00 %
24.06.2011 10:42 14,5 C 0,0 C 0,0 C 65 % 7 cb 1021,5 hPa 0,0 l/m 14,8 km/h (3 Bft) SW 230 0 min 0,000 mm 0 W/m 8,0 C 14,5 C 14,8 km/h (3 Bft) 0,00 %
24.06.2011 10:47 14,6 C 0,0 C 0,0 C 64 % 4 cb 1021,5 hPa 0,0 l/m 15,1 km/h (3 Bft) W 270 0 min 0,000 mm 0 W/m 7,9 C 14,6 C 15,1 km/h (3 Bft) 0,00 %
24.06.2011 10:52 14,5 C 0,0 C 0,0 C 64 % 6 cb 1021,5 hPa 0,0 l/m 14,5 km/h (3 Bft) W 270 0 min 0,000 mm 0 W/m 7,8 C 14,5 C 14,5 km/h (3 Bft) 0,00 %
24.06.2011 10:57 14,5 C 0,0 C 0,0 C 62 % 5 cb 1020,5 hPa 0,0 l/m 16,3 km/h (3 Bft) W 260 0 min 0,000 mm 0 W/m 7,3 C 14,5 C 16,3 km/h (3 Bft) 0,00 %
24.06.2011 11:02 14,8 C 0,0 C 0,0 C 62 % 4 cb 1020,5 hPa 0,0 l/m 16,3 km/h (3 Bft) W-NW 300 0 min 0,000 mm 0 W/m 7,6 C 14,8 C 16,3 km/h (3 Bft) 0,00 %
24.06.2011 11:07 15,1 C 0,0 C 0,0 C 62 % 5 cb 1020,5 hPa 0,0 l/m 16,0 km/h (3 Bft) W-NW 295 0 min 0,000 mm 0 W/m 7,9 C 15,1 C 16,0 km/h (3 Bft) 0,00 %
24.06.2011 11:12 15,1 C 0,0 C 0,0 C 61 % 2 cb 1020,5 hPa 0,0 l/m 10,3 km/h (2 Bft) SW 225 0 min 0,000 mm 0 W/m 7,6 C 15,1 C 10,3 km/h (2 Bft) 0,00 %
24.06.2011 11:17 15,2 C 0,0 C 0,0 C 62 % 6 cb 1020,5 hPa 0,0 l/m 18,2 km/h (3 Bft) W 280 0 min 0,000 mm 0 W/m 8,0 C 15,2 C 18,2 km/h (3 Bft) 0,00 %
24.06.2011 11:22 15,6 C 0,0 C 0,0 C 60 % 7 cb 1020,5 hPa 0,0 l/m 10,9 km/h (2 Bft) S-SO 165 0 min 0,000 mm 0 W/m 7,9 C 15,6 C 10,9 km/h (2 Bft) 0,00 %
24.06.2011 11:27 15,7 C 0,0 C 0,0 C 60 % 3 cb 1020,5 hPa 0,0 l/m 15,7 km/h (3 Bft) S-SW 195 0 min 0,000 mm 0 W/m 8,0 C 15,7 C 15,7 km/h (3 Bft) 0,00 %
24.06.2011 11:32 15,9 C 0,0 C 0,0 C 59 % 7 cb 1020,5 hPa 0,0 l/m 19,4 km/h (3 Bft) S-SO 150 0 min 0,000 mm 0 W/m 7,9 C 15,9 C 19,4 km/h (3 Bft) 0,00 %
24.06.2011 11:37 15,4 C 0,0 C 0,0 C 59 % 2 cb 1020,5 hPa 0,0 l/m 12,1 km/h (2 Bft) W-NW 295 0 min 0,000 mm 0 W/m 7,4 C 15,4 C 12,1 km/h (2 Bft) 0,00 %
24.06.2011 11:42 15,5 C 0,0 C 0,0 C 58 % 5 cb 1020,5 hPa 0,0 l/m 19,4 km/h (3 Bft) W-NW 295 0 min 0,000 mm 0 W/m 7,3 C 15,5 C 19,4 km/h (3 Bft) 0,00 %
24.06.2011 11:47 15,2 C 0,0 C 0,0 C 60 % 4 cb 1020,5 hPa 0,0 l/m 11,5 km/h (2 Bft) S 170 0 min 0,000 mm 0 W/m 7,5 C 15,2 C 11,5 km/h (2 Bft) 0,00 %
24.06.2011 11:52 15,7 C 0,0 C 0,0 C 60 % 4 cb 1020,5 hPa 0,0 l/m 12,1 km/h (2 Bft) W-NW 285 0 min 0,000 mm 0 W/m 8,0 C 15,7 C 12,1 km/h (2 Bft) 0,00 %
24.06.2011 11:57 16,0 C 0,0 C 0,0 C 58 % 4 cb 1020,5 hPa 0,0 l/m 12,7 km/h (3 Bft) S-SW 210 0 min 0,000 mm 0 W/m 7,7 C 16,0 C 12,7 km/h (3 Bft) 0,00 %
24.06.2011 12:02 16,0 C 0,0 C 0,0 C 58 % 5 cb 1020,5 hPa 0,0 l/m 13,3 km/h (3 Bft) W 275 0 min 0,000 mm 0 W/m 7,7 C 16,0 C 13,3 km/h (3 Bft) 0,00 %
24.06.2011 12:07 15,9 C 0,0 C 0,0 C 59 % 6 cb 1020,5 hPa 0,0 l/m 13,3 km/h (3 Bft) W-SW 250 0 min 0,000 mm 0 W/m 7,9 C 15,9 C 13,3 km/h (3 Bft) 0,00 %
24.06.2011 12:12 16,4 C 0,0 C 0,0 C 59 % 3 cb 1020,5 hPa 0,0 l/m 7,9 km/h (2 Bft) S-SW 195 0 min 0,000 mm 0 W/m 8,4 C 16,4 C 7,9 km/h (2 Bft) 0,00 %
24.06.2011 12:17 16,5 C 0,0 C 0,0 C 59 % 6 cb 1020,5 hPa 0,0 l/m 15,4 km/h (3 Bft) S-SW 195 0 min 0,000 mm 0 W/m 8,5 C 16,5 C 15,4 km/h (3 Bft) 0,00 %
24.06.2011 12:22 16,6 C 0,0 C 0,0 C 58 % 3 cb 1020,5 hPa 0,0 l/m 12,1 km/h (2 Bft) O-NO 75 0 min 0,000 mm 0 W/m 8,3 C 16,6 C 12,1 km/h (2 Bft) 0,00 %
24.06.2011 12:27 17,0 C 0,0 C 0,0 C 59 % 5 cb 1020,5 hPa 0,0 l/m 9,7 km/h (2 Bft) SO 130 0 min 0,000 mm 0 W/m 8,9 C 17,0 C 9,7 km/h (2 Bft) 0,00 %
24.06.2011 12:32 15,9 C 0,0 C 0,0 C 60 % 6 cb 1020,5 hPa 0,0 l/m 14,8 km/h (3 Bft) NW 315 0 min 0,000 mm 0 W/m 8,1 C 15,9 C 14,8 km/h (3 Bft) 0,00 %
24.06.2011 12:37 15,6 C 0,0 C 0,0 C 61 % 5 cb 1020,5 hPa 0,0 l/m 9,1 km/h (2 Bft) SW 220 0 min 0,000 mm 0 W/m 8,1 C 15,6 C 9,1 km/h (2 Bft) 0,00 %
24.06.2011 12:42 16,0 C 0,0 C 0,0 C 61 % 5 cb 1020,5 hPa 0,0 l/m 14,8 km/h (3 Bft) W 260 0 min 0,000 mm 0 W/m 8,5 C 16,0 C 14,8 km/h (3 Bft) 0,00 %
24.06.2011 12:47 15,6 C 0,0 C 0,0 C 61 % 5 cb 1020,5 hPa 0,0 l/m 11,2 km/h (2 Bft) W-NW 300 0 min 0,000 mm 0 W/m 8,1 C 15,6 C 11,2 km/h (2 Bft) 0,00 %
24.06.2011 12:52 14,9 C 0,0 C 0,0 C 61 % 5 cb 1020,5 hPa 0,0 l/m 14,2 km/h (3 Bft) N-NW 330 0 min 0,000 mm 0 W/m 7,4 C 14,9 C 14,2 km/h (3 Bft) 0,00 %
24.06.2011 12:57 15,4 C 0,0 C 0,0 C 61 % 6 cb 1021,5 hPa 0,0 l/m 20,9 km/h (4 Bft) O-NO 75 0 min 0,000 mm 0 W/m 7,9 C 15,4 C 20,9 km/h (4 Bft) 0,00 %
24.06.2011 13:02 15,2 C 0,0 C 0,0 C 61 % 4 cb 1021,5 hPa 0,0 l/m 15,7 km/h (3 Bft) W-SW 255 0 min 0,000 mm 0 W/m 7,7 C 15,2 C 15,7 km/h (3 Bft) 0,00 %
24.06.2011 13:07 15,1 C 0,0 C 0,0 C 60 % 5 cb 1021,5 hPa 0,0 l/m 15,1 km/h (3 Bft) W-SW 250 0 min 0,000 mm 0 W/m 7,4 C 15,1 C 15,1 km/h (3 Bft) 0,00 %
24.06.2011 13:12 15,0 C 0,0 C 0,0 C 61 % 5 cb 1020,5 hPa 0,0 l/m 12,1 km/h (2 Bft) W-SW 255 0 min 0,000 mm 0 W/m 7,5 C 15,0 C 12,1 km/h (2 Bft) 0,00 %
24.06.2011 13:17 14,9 C 0,0 C 0,0 C 64 % 3 cb 1020,5 hPa 0,0 l/m 13,3 km/h (3 Bft) NW 305 0 min 0,000 mm 0 W/m 8,2 C 14,9 C 13,3 km/h (3 Bft) 0,00 %
24.06.2011 13:22 14,0 C 0,0 C 0,0 C 68 % 0 cb 1020,5 hPa 0,0 l/m 9,4 km/h (2 Bft) NW 315 0 min 0,000 mm 0 W/m 8,2 C 14,0 C 9,4 km/h (2 Bft) 0,00 %
24.06.2011 13:27 13,9 C 0,0 C 0,0 C 69 % 0 cb 1020,5 hPa 0,0 l/m 9,1 km/h (2 Bft) NW 325 0 min 0,000 mm 0 W/m 8,3 C 13,9 C 9,1 km/h (2 Bft) 0,00 %
24.06.2011 13:32 13,8 C 0,0 C 0,0 C 68 % 0 cb 1020,5 hPa 0,0 l/m 14,5 km/h (3 Bft) W 270 0 min 0,000 mm 0 W/m 8,0 C 13,8 C 14,5 km/h (3 Bft) 0,00 %
24.06.2011 13:37 13,9 C 0,0 C 0,0 C 71 % 3 cb 1020,5 hPa 0,0 l/m 5,4 km/h (1 Bft) NW 305 0 min 0,000 mm 0 W/m 8,7 C 13,9 C 5,4 km/h (1 Bft) 0,00 %
24.06.2011 13:42 14,3 C 0,0 C 0,0 C 70 % 6 cb 1020,5 hPa 0,0 l/m 10,3 km/h (2 Bft) N-NW 335 0 min 0,000 mm 0 W/m 8,9 C 14,3 C 10,3 km/h (2 Bft) 0,00 %
24.06.2011 13:47 15,1 C 0,0 C 0,0 C 68 % 5 cb 1020,5 hPa 0,0 l/m 4,2 km/h (1 Bft) W-SW 240 0 min 0,000 mm 0 W/m 9,2 C 15,1 C 4,2 km/h (1 Bft) 0,00 %
24.06.2011 13:52 15,0 C 0,0 C 0,0 C 65 % 1 cb 1020,5 hPa 0,0 l/m 11,5 km/h (2 Bft) S-SW 200 0 min 0,000 mm 0 W/m 8,5 C 15,0 C 11,5 km/h (2 Bft) 0,00 %
24.06.2011 13:57 14,6 C 0,0 C 0,0 C 65 % 0 cb 1020,5 hPa 0,0 l/m 17,2 km/h (3 Bft) W 280 0 min 0,000 mm 0 W/m 8,1 C 14,6 C 17,2 km/h (3 Bft) 0,00 %
24.06.2011 14:02 14,6 C 0,0 C 0,0 C 65 % 1 cb 1020,5 hPa 0,0 l/m 12,1 km/h (2 Bft) NW 315 0 min 0,000 mm 0 W/m 8,1 C 14,6 C 12,1 km/h (2 Bft) 0,00 %
24.06.2011 14:07 16,4 C 0,0 C 0,0 C 63 % 5 cb 1020,5 hPa 0,0 l/m 12,1 km/h (2 Bft) NO 55 0 min 0,000 mm 0 W/m 9,3 C 16,4 C 12,1 km/h (2 Bft) 0,00 %
24.06.2011 14:12 16,4 C 0,0 C 0,0 C 58 % 5 cb 1020,5 hPa 0,0 l/m 18,5 km/h (3 Bft) W-NW 295 0 min 0,000 mm 0 W/m 8,1 C 16,4 C 18,5 km/h (3 Bft) 0,00 %
24.06.2011 14:17 16,2 C 0,0 C 0,0 C 59 % 3 cb 1020,5 hPa 0,0 l/m 10,9 km/h (2 Bft) SW 220 0 min 0,000 mm 0 W/m 8,2 C 16,2 C 10,9 km/h (2 Bft) 0,00 %
24.06.2011 14:22 16,0 C 0,0 C 0,0 C 61 % 7 cb 1020,5 hPa 0,0 l/m 13,3 km/h (3 Bft) O 95 0 min 0,000 mm 0 W/m 8,5 C 16,0 C 13,3 km/h (3 Bft) 0,00 %
24.06.2011 14:27 15,7 C 0,0 C 0,0 C 61 % 3 cb 1020,5 hPa 0,0 l/m 18,2 km/h (3 Bft) SW 230 0 min 0,000 mm 0 W/m 8,2 C 15,7 C 18,2 km/h (3 Bft) 0,00 %
24.06.2011 14:32 17,1 C 0,0 C 0,0 C 58 % 7 cb 1020,5 hPa 0,0 l/m 11,2 km/h (2 Bft) SW 230 0 min 0,000 mm 0 W/m 8,8 C 17,1 C 11,2 km/h (2 Bft) 0,00 %
24.06.2011 14:37 17,2 C 0,0 C 0,0 C 56 % 3 cb 1020,5 hPa 0,0 l/m 16,3 km/h (3 Bft) NO 55 0 min 0,000 mm 0 W/m 8,3 C 17,2 C 16,3 km/h (3 Bft) 0,00 %
24.06.2011 14:42 16,8 C 0,0 C 0,0 C 55 % 6 cb 1020,5 hPa 0,0 l/m 14,8 km/h (3 Bft) SW 235 0 min 0,000 mm 0 W/m 7,7 C 16,8 C 14,8 km/h (3 Bft) 0,00 %
24.06.2011 14:47 17,1 C 0,0 C 0,0 C 57 % 4 cb 1020,5 hPa 0,0 l/m 18,2 km/h (3 Bft) W 260 0 min 0,000 mm 0 W/m 8,5 C 17,1 C 18,2 km/h (3 Bft) 0,00 %
24.06.2011 14:52 17,3 C 0,0 C 0,0 C 57 % 5 cb 1020,5 hPa 0,0 l/m 18,2 km/h (3 Bft) N-NW 345 0 min 0,000 mm 0 W/m 8,7 C 17,3 C 18,2 km/h (3 Bft) 0,00 %
24.06.2011 14:57 17,0 C 0,0 C 0,0 C 57 % 5 cb 1020,5 hPa 0,0 l/m 11,5 km/h (2 Bft) W-NW 285 0 min 0,000 mm 0 W/m 8,4 C 17,0 C 11,5 km/h (2 Bft) 0,00 %
24.06.2011 15:02 16,9 C 0,0 C 0,0 C 54 % 6 cb 1020,5 hPa 0,0 l/m 20,0 km/h (4 Bft) NW 325 0 min 0,000 mm 0 W/m 7,5 C 16,9 C 20,0 km/h (4 Bft) 0,00 %
24.06.2011 15:07 17,5 C 0,0 C 0,0 C 56 % 5 cb 1020,5 hPa 0,0 l/m 12,4 km/h (3 Bft) W 265 0 min 0,000 mm 0 W/m 8,6 C 17,5 C 12,4 km/h (3 Bft) 0,00 %
24.06.2011 15:12 16,9 C 0,0 C 0,0 C 58 % 3 cb 1020,5 hPa 0,0 l/m 17,2 km/h (3 Bft) N-NW 335 0 min 0,000 mm 0 W/m 8,6 C 16,9 C 17,2 km/h (3 Bft) 0,00 %
24.06.2011 15:17 16,9 C 0,0 C 0,0 C 58 % 7 cb 1020,5 hPa 0,0 l/m 12,7 km/h (3 Bft) SW 215 0 min 0,000 mm 0 W/m 8,6 C 16,9 C 12,7 km/h (3 Bft) 0,00 %
24.06.2011 15:22 17,4 C 0,0 C 0,0 C 57 % 3 cb 1020,5 hPa 0,0 l/m 13,6 km/h (3 Bft) W-SW 255 0 min 0,000 mm 0 W/m 8,8 C 17,4 C 13,6 km/h (3 Bft) 0,00 %
24.06.2011 15:27 17,6 C 0,0 C 0,0 C 56 % 7 cb 1020,5 hPa 0,0 l/m 10,9 km/h (2 Bft) W-SW 240 0 min 0,000 mm 0 W/m 8,7 C 17,6 C 10,9 km/h (2 Bft) 0,00 %
24.06.2011 15:32 17,3 C 0,0 C 0,0 C 53 % 3 cb 1020,5 hPa 0,0 l/m 17,2 km/h (3 Bft) W 270 0 min 0,000 mm 0 W/m 7,6 C 17,3 C 17,2 km/h (3 Bft) 0,00 %
24.06.2011 15:37 18,0 C 0,0 C 0,0 C 55 % 7 cb 1020,5 hPa 0,0 l/m 11,8 km/h (2 Bft) NW 325 0 min 0,000 mm 0 W/m 8,8 C 18,0 C 11,8 km/h (2 Bft) 0,00 %
24.06.2011 15:42 17,3 C 0,0 C 0,0 C 54 % 4 cb 1020,5 hPa 0,0 l/m 11,5 km/h (2 Bft) N-NW 335 0 min 0,000 mm 0 W/m 7,9 C 17,3 C 11,5 km/h (2 Bft) 0,00 %
24.06.2011 15:47 16,8 C 0,0 C 0,0 C 54 % 3 cb 1020,5 hPa 0,0 l/m 12,4 km/h (3 Bft) S-SO 160 0 min 0,000 mm 0 W/m 7,4 C 16,8 C 12,4 km/h (3 Bft) 0,00 %
24.06.2011 15:52 16,4 C 0,0 C 0,0 C 56 % 3 cb 1020,5 hPa 0,0 l/m 17,6 km/h (3 Bft) SW 230 0 min 0,000 mm 0 W/m 7,6 C 16,4 C 17,6 km/h (3 Bft) 0,00 %
24.06.2011 15:57 16,3 C 0,0 C 0,0 C 56 % 3 cb 1020,5 hPa 0,0 l/m 16,9 km/h (3 Bft) SW 225 0 min 0,000 mm 0 W/m 7,5 C 16,3 C 16,9 km/h (3 Bft) 0,00 %
24.06.2011 16:02 16,0 C 0,0 C 0,0 C 56 % 0 cb 1020,5 hPa 0,0 l/m 13,9 km/h (3 Bft) SW 215 0 min 0,000 mm 0 W/m 7,2 C 16,0 C 13,9 km/h (3 Bft) 0,00 %
24.06.2011 16:07 16,0 C 0,0 C 0,0 C 56 % 0 cb 1020,5 hPa 0,0 l/m 20,3 km/h (4 Bft) NW 320 0 min 0,000 mm 0 W/m 7,2 C 16,0 C 20,3 km/h (4 Bft) 0,00 %
24.06.2011 16:12 16,5 C 0,0 C 0,0 C 57 % 4 cb 1020,5 hPa 0,0 l/m 10,0 km/h (2 Bft) W 265 0 min 0,000 mm 0 W/m 8,0 C 16,5 C 10,0 km/h (2 Bft) 0,00 %
24.06.2011 16:17 17,0 C 0,0 C 0,0 C 54 % 5 cb 1020,5 hPa 0,0 l/m 14,8 km/h (3 Bft) N-NW 335 0 min 0,000 mm 0 W/m 7,6 C 17,0 C 14,8 km/h (3 Bft) 0,00 %
24.06.2011 16:22 16,7 C 0,0 C 0,0 C 55 % 5 cb 1020,5 hPa 0,0 l/m 13,3 km/h (3 Bft) W-SW 255 0 min 0,000 mm 0 W/m 7,6 C 16,7 C 13,3 km/h (3 Bft) 0,00 %
24.06.2011 16:27 16,9 C 0,0 C 0,0 C 57 % 5 cb 1020,5 hPa 0,0 l/m 10,3 km/h (2 Bft) NW 320 0 min 0,000 mm 0 W/m 8,3 C 16,9 C 10,3 km/h (2 Bft) 0,00 %
24.06.2011 16:32 16,7 C 0,0 C 0,0 C 56 % 5 cb 1020,5 hPa 0,0 l/m 16,6 km/h (3 Bft) NW 315 0 min 0,000 mm 0 W/m 7,9 C 16,7 C 16,6 km/h (3 Bft) 0,00 %
24.06.2011 16:37 17,7 C 0,0 C 0,0 C 56 % 5 cb 1020,5 hPa 0,0 l/m 10,9 km/h (2 Bft) W 260 0 min 0,000 mm 0 W/m 8,8 C 17,7 C 10,9 km/h (2 Bft) 0,00 %
24.06.2011 16:42 17,0 C 0,0 C 0,0 C 54 % 4 cb 1020,5 hPa 0,0 l/m 13,3 km/h (3 Bft) W 265 0 min 0,000 mm 0 W/m 7,6 C 17,0 C 13,3 km/h (3 Bft) 0,00 %
24.06.2011 16:47 17,0 C 0,0 C 0,0 C 56 % 2 cb 1020,5 hPa 0,0 l/m 10,6 km/h (2 Bft) W 280 0 min 0,000 mm 0 W/m 8,2 C 17,0 C 10,6 km/h (2 Bft) 0,00 %
24.06.2011 16:52 17,7 C 0,0 C 0,0 C 53 % 8 cb 1020,5 hPa 0,0 l/m 10,9 km/h (2 Bft) W-NW 295 0 min 0,000 mm 0 W/m 8,0 C 17,7 C 10,9 km/h (2 Bft) 0,00 %
24.06.2011 16:57 17,6 C 0,0 C 0,0 C 52 % 5 cb 1020,5 hPa 0,0 l/m 15,1 km/h (3 Bft) S-SO 165 0 min 0,000 mm 0 W/m 7,6 C 17,6 C 15,1 km/h (3 Bft) 0,00 %
24.06.2011 17:02 17,4 C 0,0 C 0,0 C 53 % 5 cb 1020,5 hPa 0,0 l/m 13,3 km/h (3 Bft) W 270 0 min 0,000 mm 0 W/m 7,7 C 17,4 C 13,3 km/h (3 Bft) 0,00 %
24.06.2011 17:07 17,8 C 0,0 C 0,0 C 53 % 5 cb 1020,5 hPa 0,0 l/m 10,9 km/h (2 Bft) NW 310 0 min 0,000 mm 0 W/m 8,1 C 17,8 C 10,9 km/h (2 Bft) 0,00 %
24.06.2011 17:12 17,5 C 0,0 C 0,0 C 52 % 3 cb 1020,5 hPa 0,0 l/m 14,2 km/h (3 Bft) NW 325 0 min 0,000 mm 0 W/m 7,5 C 17,5 C 14,2 km/h (3 Bft) 0,00 %
24.06.2011 17:17 16,4 C 0,0 C 0,0 C 54 % 0 cb 1020,5 hPa 0,0 l/m 13,6 km/h (3 Bft) W-SW 240 0 min 0,000 mm 0 W/m 7,1 C 16,4 C 13,6 km/h (3 Bft) 0,00 %
24.06.2011 17:22 16,3 C 0,0 C 0,0 C 56 % 1 cb 1020,5 hPa 0,0 l/m 13,3 km/h (3 Bft) W 275 0 min 0,000 mm 0 W/m 7,5 C 16,3 C 13,3 km/h (3 Bft) 0,00 %
24.06.2011 17:27 17,4 C 0,0 C 0,0 C 55 % 5 cb 1021,5 hPa 0,0 l/m 9,7 km/h (2 Bft) N 350 0 min 0,000 mm 0 W/m 8,3 C 17,4 C 9,7 km/h (2 Bft) 0,00 %
24.06.2011 17:32 17,6 C 0,0 C 0,0 C 54 % 5 cb 1021,5 hPa 0,0 l/m 15,1 km/h (3 Bft) W-SW 250 0 min 0,000 mm 0 W/m 8,2 C 17,6 C 15,1 km/h (3 Bft) 0,00 %
24.06.2011 17:37 17,5 C 0,0 C 0,0 C 54 % 3 cb 1021,5 hPa 0,0 l/m 15,1 km/h (3 Bft) N 350 0 min 0,000 mm 0 W/m 8,1 C 17,5 C 15,1 km/h (3 Bft) 0,00 %
24.06.2011 17:42 17,4 C 0,0 C 0,0 C 50 % 4 cb 1021,5 hPa 0,0 l/m 10,9 km/h (2 Bft) W 275 0 min 0,000 mm 0 W/m 6,9 C 17,4 C 10,9 km/h (2 Bft) 0,00 %
24.06.2011 17:47 17,1 C 0,0 C 0,0 C 52 % 6 cb 1021,5 hPa 0,0 l/m 12,4 km/h (3 Bft) W-SW 250 0 min 0,000 mm 0 W/m 7,2 C 17,1 C 12,4 km/h (3 Bft) 0,00 %
24.06.2011 17:52 17,4 C 0,0 C 0,0 C 50 % 5 cb 1021,5 hPa 0,0 l/m 10,0 km/h (2 Bft) SW 215 0 min 0,000 mm 0 W/m 6,9 C 17,4 C 10,0 km/h (2 Bft) 0,00 %
24.06.2011 17:57 17,5 C 0,0 C 0,0 C 51 % 2 cb 1020,5 hPa 0,0 l/m 10,0 km/h (2 Bft) W 260 0 min 0,000 mm 0 W/m 7,3 C 17,5 C 10,0 km/h (2 Bft) 0,00 %
24.06.2011 18:02 17,5 C 0,0 C 0,0 C 51 % 6 cb 1020,5 hPa 0,0 l/m 10,0 km/h (2 Bft) W-NW 290 0 min 0,000 mm 0 W/m 7,3 C 17,5 C 10,0 km/h (2 Bft) 0,00 %
24.06.2011 18:07 17,7 C 0,0 C 0,0 C 49 % 6 cb 1020,5 hPa 0,0 l/m 11,8 km/h (2 Bft) S-SW 210 0 min 0,000 mm 0 W/m 6,9 C 17,7 C 11,8 km/h (2 Bft) 0,00 %
24.06.2011 18:12 17,8 C 0,0 C 0,0 C 48 % 6 cb 1020,5 hPa 0,0 l/m 14,5 km/h (3 Bft) N 350 0 min 0,000 mm 0 W/m 6,6 C 17,8 C 14,5 km/h (3 Bft) 0,00 %
24.06.2011 18:17 18,0 C 0,0 C 0,0 C 46 % 4 cb 1020,5 hPa 0,0 l/m 12,1 km/h (2 Bft) W 280 0 min 0,000 mm 0 W/m 6,2 C 18,0 C 12,1 km/h (2 Bft) 0,00 %
24.06.2011 18:22 18,3 C 0,0 C 0,0 C 46 % 3 cb 1020,5 hPa 0,0 l/m 12,1 km/h (2 Bft) N 0 0 min 0,000 mm 0 W/m 6,5 C 18,3 C 12,1 km/h (2 Bft) 0,00 %
24.06.2011 18:27 17,4 C 0,0 C 0,0 C 47 % 4 cb 1021,5 hPa 0,0 l/m 10,3 km/h (2 Bft) N-NW 340 0 min 0,000 mm 0 W/m 6,0 C 17,4 C 10,3 km/h (2 Bft) 0,00 %
24.06.2011 18:32 16,7 C 0,0 C 0,0 C 48 % 0 cb 1021,5 hPa 0,0 l/m 15,4 km/h (3 Bft) W 270 0 min 0,000 mm 0 W/m 5,6 C 16,7 C 15,4 km/h (3 Bft) 0,00 %
24.06.2011 18:37 16,3 C 0,0 C 0,0 C 50 % 0 cb 1021,5 hPa 0,0 l/m 12,7 km/h (3 Bft) N-NW 345 0 min 0,000 mm 0 W/m 5,9 C 16,3 C 12,7 km/h (3 Bft) 0,00 %
24.06.2011 18:42 16,2 C 0,0 C 0,0 C 52 % 0 cb 1021,5 hPa 0,0 l/m 6,4 km/h (2 Bft) NW 305 0 min 0,000 mm 0 W/m 6,3 C 16,2 C 6,4 km/h (2 Bft) 0,00 %
24.06.2011 18:47 16,0 C 0,0 C 0,0 C 53 % 0 cb 1021,5 hPa 0,0 l/m 14,8 km/h (3 Bft) N 350 0 min 0,000 mm 0 W/m 6,4 C 16,0 C 14,8 km/h (3 Bft) 0,00 %
24.06.2011 18:52 14,7 C 0,0 C 0,0 C 58 % 0 cb 1021,5 hPa 0,0 l/m 21,2 km/h (4 Bft) NW 305 0 min 0,000 mm 0 W/m 6,5 C 14,7 C 21,2 km/h (4 Bft) 0,00 %
24.06.2011 18:57 14,6 C 0,0 C 0,0 C 60 % 0 cb 1021,5 hPa 0,0 l/m 14,2 km/h (3 Bft) N-NO 30 0 min 0,000 mm 0 W/m 6,9 C 14,6 C 14,2 km/h (3 Bft) 0,00 %
24.06.2011 19:02 14,2 C 0,0 C 0,0 C 61 % 0 cb 1021,5 hPa 0,0 l/m 17,9 km/h (3 Bft) W-NW 300 0 min 0,000 mm 0 W/m 6,8 C 14,2 C 17,9 km/h (3 Bft) 0,00 %
24.06.2011 19:07 14,2 C 0,0 C 0,0 C 63 % 0 cb 1021,5 hPa 0,0 l/m 11,5 km/h (2 Bft) N 0 0 min 0,000 mm 0 W/m 7,3 C 14,2 C 11,5 km/h (2 Bft) 0,00 %
24.06.2011 19:12 14,0 C 0,0 C 0,0 C 64 % 0 cb 1021,5 hPa 0,0 l/m 13,6 km/h (3 Bft) N-NW 330 0 min 0,000 mm 0 W/m 7,3 C 14,0 C 13,6 km/h (3 Bft) 0,00 %
24.06.2011 19:17 13,8 C 0,0 C 0,0 C 65 % 0 cb 1021,5 hPa 0,0 l/m 15,4 km/h (3 Bft) NW 305 0 min 0,000 mm 0 W/m 7,3 C 13,8 C 15,4 km/h (3 Bft) 0,00 %
24.06.2011 19:22 14,0 C 0,0 C 0,0 C 65 % 0 cb 1021,5 hPa 0,0 l/m 8,8 km/h (2 Bft) N-NW 340 0 min 0,000 mm 0 W/m 7,5 C 14,0 C 8,8 km/h (2 Bft) 0,00 %
24.06.2011 19:27 14,1 C 0,0 C 0,0 C 65 % 0 cb 1021,5 hPa 0,0 l/m 7,6 km/h (2 Bft) NW 325 0 min 0,000 mm 0 W/m 7,6 C 14,1 C 7,6 km/h (2 Bft) 0,00 %
24.06.2011 19:32 14,0 C 0,0 C 0,0 C 65 % 0 cb 1021,5 hPa 0,0 l/m 6,4 km/h (2 Bft) W-NW 300 0 min 0,000 mm 0 W/m 7,5 C 14,0 C 6,4 km/h (2 Bft) 0,00 %
24.06.2011 19:37 14,0 C 0,0 C 0,0 C 65 % 0 cb 1021,5 hPa 0,0 l/m 5,7 km/h (1 Bft) N 10 0 min 0,000 mm 0 W/m 7,5 C 14,0 C 5,7 km/h (1 Bft) 0,00 %
24.06.2011 19:42 14,2 C 0,0 C 0,0 C 65 % 2 cb 1021,5 hPa 0,0 l/m 6,7 km/h (2 Bft) N-NW 335 0 min 0,000 mm 0 W/m 7,7 C 14,2 C 6,7 km/h (2 Bft) 0,00 %
24.06.2011 19:47 14,4 C 0,0 C 0,0 C 65 % 0 cb 1021,5 hPa 0,0 l/m 5,1 km/h (1 Bft) N-NW 345 0 min 0,000 mm 0 W/m 7,9 C 14,4 C 5,1 km/h (1 Bft) 0,00 %
24.06.2011 19:52 14,4 C 0,0 C 0,0 C 65 % 0 cb 1021,5 hPa 0,0 l/m 0,0 km/h (0 Bft) N-NO 25 0 min 0,000 mm 0 W/m 7,9 C 14,4 C 0,0 km/h (0 Bft) 0,00 %
24.06.2011 19:57 14,4 C 0,0 C 0,0 C 65 % 0 cb 1021,5 hPa 0,0 l/m 2,4 km/h (1 Bft) N 0 0 min 0,000 mm 0 W/m 7,9 C 14,4 C 2,4 km/h (1 Bft) 0,00 %
24.06.2011 20:02 14,3 C 0,0 C 0,0 C 64 % 0 cb 1021,5 hPa 0,0 l/m 3,6 km/h (1 Bft) N-NW 330 0 min 0,000 mm 0 W/m 7,6 C 14,3 C 3,6 km/h (1 Bft) 0,00 %
24.06.2011 20:07 14,3 C 0,0 C 0,0 C 64 % 0 cb 1021,5 hPa 0,0 l/m 0,0 km/h (0 Bft) W 260 0 min 0,000 mm 0 W/m 7,6 C 14,3 C 0,0 km/h (0 Bft) 0,00 %
24.06.2011 20:12 14,8 C 0,0 C 0,0 C 63 % 4 cb 1021,5 hPa 0,0 l/m 2,4 km/h (1 Bft) N-NW 335 0 min 0,000 mm 0 W/m 7,8 C 14,8 C 2,4 km/h (1 Bft) 0,00 %
24.06.2011 20:17 15,2 C 0,0 C 0,0 C 61 % 6 cb 1021,5 hPa 0,0 l/m 5,1 km/h (1 Bft) N-NW 335 0 min 0,000 mm 0 W/m 7,7 C 15,2 C 5,1 km/h (1 Bft) 0,00 %
24.06.2011 20:22 15,3 C 0,0 C 0,0 C 61 % 4 cb 1021,5 hPa 0,0 l/m 0,0 km/h (0 Bft) N-NW 330 0 min 0,000 mm 0 W/m 7,8 C 15,3 C 0,0 km/h (0 Bft) 0,00 %
24.06.2011 20:27 15,4 C 0,0 C 0,0 C 60 % 6 cb 1022,5 hPa 0,0 l/m 0,0 km/h (0 Bft) W-SW 245 0 min 0,000 mm 0 W/m 7,7 C 15,4 C 0,0 km/h (0 Bft) 0,00 %
24.06.2011 20:32 15,4 C 0,0 C 0,0 C 61 % 0 cb 1022,5 hPa 0,0 l/m 0,0 km/h (0 Bft) W-SW 250 0 min 0,000 mm 0 W/m 7,9 C 15,4 C 0,0 km/h (0 Bft) 0,00 %
24.06.2011 20:37 15,0 C 0,0 C 0,0 C 61 % 0 cb 1022,5 hPa 0,0 l/m 0,0 km/h (0 Bft) N-NO 20 0 min 0,000 mm 0 W/m 7,5 C 15,0 C 0,0 km/h (0 Bft) 0,00 %
24.06.2011 20:42 14,8 C 0,0 C 0,0 C 62 % 0 cb 1022,5 hPa 0,0 l/m 0,0 km/h (0 Bft) W-SW 245 0 min 0,000 mm 0 W/m 7,6 C 14,8 C 0,0 km/h (0 Bft) 0,00 %
24.06.2011 20:47 14,6 C 0,0 C 0,0 C 63 % 0 cb 1022,5 hPa 0,0 l/m 0,0 km/h (0 Bft) S 175 0 min 0,000 mm 0 W/m 7,6 C 14,6 C 0,0 km/h (0 Bft) 0,00 %
24.06.2011 20:52 14,4 C 0,0 C 0,0 C 64 % 0 cb 1022,5 hPa 0,0 l/m 0,0 km/h (0 Bft) SW 235 0 min 0,000 mm 0 W/m 7,7 C 14,4 C 0,0 km/h (0 Bft) 0,00 %
24.06.2011 20:57 14,2 C 0,0 C 0,0 C 65 % 0 cb 1022,5 hPa 0,0 l/m 0,0 km/h (0 Bft) N-NW 335 0 min 0,000 mm 0 W/m 7,7 C 14,2 C 0,0 km/h (0 Bft) 0,00 %
24.06.2011 21:02 14,1 C 0,0 C 0,0 C 65 % 0 cb 1022,5 hPa 0,0 l/m 0,0 km/h (0 Bft) W-SW 245 0 min 0,000 mm 0 W/m 7,6 C 14,1 C 0,0 km/h (0 Bft) 0,00 %
24.06.2011 21:07 14,0 C 0,0 C 0,0 C 66 % 0 cb 1022,5 hPa 0,0 l/m 0,0 km/h (0 Bft) W 280 0 min 0,000 mm 0 W/m 7,7 C 14,0 C 0,0 km/h (0 Bft) 0,00 %
24.06.2011 21:12 13,7 C 0,0 C 0,0 C 67 % 0 cb 1022,5 hPa 0,0 l/m 0,0 km/h (0 Bft) W-NW 285 0 min 0,000 mm 0 W/m 7,7 C 13,7 C 0,0 km/h (0 Bft) 0,00 %
24.06.2011 21:17 13,5 C 0,0 C 0,0 C 68 % 0 cb 1022,5 hPa 0,0 l/m 0,0 km/h (0 Bft) W-NW 285 0 min 0,000 mm 0 W/m 7,7 C 13,5 C 0,0 km/h (0 Bft) 0,00 %
24.06.2011 21:22 13,2 C 0,0 C 0,0 C 69 % 0 cb 1022,5 hPa 0,0 l/m 0,0 km/h (0 Bft) W-NW 285 0 min 0,000 mm 0 W/m 7,6 C 13,2 C 0,0 km/h (0 Bft) 0,00 %
24.06.2011 21:27 12,8 C 0,0 C 0,0 C 71 % 0 cb 1022,5 hPa 0,0 l/m 0,0 km/h (0 Bft) N 0 0 min 0,000 mm 0 W/m 7,7 C 12,8 C 0,0 km/h (0 Bft) 0,00 %
24.06.2011 21:32 12,6 C 0,0 C 0,0 C 72 % 0 cb 1022,5 hPa 0,0 l/m 0,0 km/h (0 Bft) N 0 0 min 0,000 mm 0 W/m 7,7 C 12,6 C 0,0 km/h (0 Bft) 0,00 %
24.06.2011 21:37 12,5 C 0,0 C 0,0 C 72 % 0 cb 1022,5 hPa 0,0 l/m 0,0 km/h (0 Bft) N 0 0 min 0,000 mm 0 W/m 7,6 C 12,5 C 0,0 km/h (0 Bft) 0,00 %
24.06.2011 21:42 12,3 C 0,0 C 0,0 C 73 % 0 cb 1022,5 hPa 0,0 l/m 0,0 km/h (0 Bft) N 0 0 min 0,000 mm 0 W/m 7,6 C 12,3 C 0,0 km/h (0 Bft) 0,00 %
24.06.2011 21:47 12,2 C 0,0 C 0,0 C 73 % 0 cb 1022,5 hPa 0,0 l/m 0,0 km/h (0 Bft) O 90 0 min 0,000 mm 0 W/m 7,5 C 12,2 C 0,0 km/h (0 Bft) 0,00 %
24.06.2011 21:52 12,2 C 0,0 C 0,0 C 74 % 0 cb 1022,5 hPa 0,0 l/m 3,3 km/h (1 Bft) N-NO 20 0 min 0,000 mm 0 W/m 7,7 C 12,2 C 3,3 km/h (1 Bft) 0,00 %
24.06.2011 21:57 12,2 C 0,0 C 0,0 C 74 % 0 cb 1022,5 hPa 0,0 l/m 1,8 km/h (1 Bft) NW 320 0 min 0,000 mm 0 W/m 7,7 C 12,2 C 1,8 km/h (1 Bft) 0,00 %
24.06.2011 22:02 12,0 C 0,0 C 0,0 C 75 % 0 cb 1022,5 hPa 0,0 l/m 0,0 km/h (0 Bft) O-SO 115 0 min 0,000 mm 0 W/m 7,7 C 12,0 C 0,0 km/h (0 Bft) 0,00 %
24.06.2011 22:07 11,8 C 0,0 C 0,0 C 76 % 0 cb 1022,5 hPa 0,0 l/m 0,0 km/h (0 Bft) NW 320 0 min 0,000 mm 0 W/m 7,7 C 11,8 C 0,0 km/h (0 Bft) 0,00 %
24.06.2011 22:12 11,8 C 0,0 C 0,0 C 76 % 0 cb 1023,5 hPa 0,0 l/m 0,6 km/h (0 Bft) N-NW 335 0 min 0,000 mm 0 W/m 7,7 C 11,8 C 0,6 km/h (0 Bft) 0,00 %
24.06.2011 22:17 11,8 C 0,0 C 0,0 C 75 % 0 cb 1023,5 hPa 0,0 l/m 0,0 km/h (0 Bft) N-NW 340 0 min 0,000 mm 0 W/m 7,5 C 11,8 C 0,0 km/h (0 Bft) 0,00 %
24.06.2011 22:22 11,8 C 0,0 C 0,0 C 75 % 0 cb 1023,5 hPa 0,0 l/m 0,0 km/h (0 Bft) SW 230 0 min 0,000 mm 0 W/m 7,5 C 11,8 C 0,0 km/h (0 Bft) 0,00 %
24.06.2011 22:27 11,8 C 0,0 C 0,0 C 75 % 0 cb 1023,5 hPa 0,0 l/m 0,0 km/h (0 Bft) N-NW 340 0 min 0,000 mm 0 W/m 7,5 C 11,8 C 0,0 km/h (0 Bft) 0,00 %
24.06.2011 22:32 11,7 C 0,0 C 0,0 C 75 % 0 cb 1023,5 hPa 0,0 l/m 0,0 km/h (0 Bft) NW 315 0 min 0,000 mm 0 W/m 7,4 C 11,7 C 0,0 km/h (0 Bft) 0,00 %
24.06.2011 22:37 11,6 C 0,0 C 0,0 C 75 % 0 cb 1023,5 hPa 0,0 l/m 0,0 km/h (0 Bft) N-NW 330 0 min 0,000 mm 0 W/m 7,3 C 11,6 C 0,0 km/h (0 Bft) 0,00 %
24.06.2011 22:42 11,6 C 0,0 C 0,0 C 75 % 0 cb 1023,5 hPa 0,0 l/m 1,2 km/h (1 Bft) NW 325 0 min 0,000 mm 0 W/m 7,3 C 11,6 C 1,2 km/h (1 Bft) 0,00 %
24.06.2011 22:47 11,5 C 0,0 C 0,0 C 76 % 0 cb 1023,5 hPa 0,0 l/m 0,0 km/h (0 Bft) NW 320 0 min 0,000 mm 0 W/m 7,4 C 11,5 C 0,0 km/h (0 Bft) 0,00 %
24.06.2011 22:52 11,4 C 0,0 C 0,0 C 76 % 0 cb 1023,5 hPa 0,0 l/m 0,0 km/h (0 Bft) N 0 0 min 0,000 mm 0 W/m 7,3 C 11,4 C 0,0 km/h (0 Bft) 0,00 %
24.06.2011 22:57 11,4 C 0,0 C 0,0 C 77 % 0 cb 1023,5 hPa 0,0 l/m 0,0 km/h (0 Bft) N-NW 335 0 min 0,000 mm 0 W/m 7,5 C 11,4 C 0,0 km/h (0 Bft) 0,00 %
24.06.2011 23:02 11,4 C 0,0 C 0,0 C 77 % 0 cb 1023,5 hPa 0,0 l/m 0,0 km/h (0 Bft) N-NW 340 0 min 0,000 mm 0 W/m 7,5 C 11,4 C 0,0 km/h (0 Bft) 0,00 %
24.06.2011 23:07 11,4 C 0,0 C 0,0 C 77 % 0 cb 1023,5 hPa 0,0 l/m 0,0 km/h (0 Bft) N 5 0 min 0,000 mm 0 W/m 7,5 C 11,4 C 0,0 km/h (0 Bft) 0,00 %
24.06.2011 23:12 11,4 C 0,0 C 0,0 C 77 % 0 cb 1023,5 hPa 0,0 l/m 0,0 km/h (0 Bft) S-SW 205 0 min 0,000 mm 0 W/m 7,5 C 11,4 C 0,0 km/h (0 Bft) 0,00 %
24.06.2011 23:17 11,3 C 0,0 C 0,0 C 77 % 0 cb 1023,5 hPa 0,0 l/m 0,0 km/h (0 Bft) S-SO 160 0 min 0,000 mm 0 W/m 7,4 C 11,3 C 0,0 km/h (0 Bft) 0,00 %
24.06.2011 23:22 11,2 C 0,0 C 0,0 C 78 % 0 cb 1023,5 hPa 0,0 l/m 0,0 km/h (0 Bft) O 80 0 min 0,000 mm 0 W/m 7,5 C 11,2 C 0,0 km/h (0 Bft) 0,00 %
24.06.2011 23:27 11,1 C 0,0 C 0,0 C 79 % 0 cb 1023,5 hPa 0,0 l/m 0,0 km/h (0 Bft) NO 35 0 min 0,000 mm 0 W/m 7,6 C 11,1 C 0,0 km/h (0 Bft) 0,00 %
24.06.2011 23:32 11,0 C 0,0 C 0,0 C 79 % 0 cb 1023,5 hPa 0,0 l/m 0,0 km/h (0 Bft) N-NW 330 0 min 0,000 mm 0 W/m 7,5 C 11,0 C 0,0 km/h (0 Bft) 0,00 %
24.06.2011 23:37 11,0 C 0,0 C 0,0 C 79 % 0 cb 1023,5 hPa 0,0 l/m 0,0 km/h (0 Bft) N-NW 345 0 min 0,000 mm 0 W/m 7,5 C 11,0 C 0,0 km/h (0 Bft) 0,00 %
24.06.2011 23:42 11,0 C 0,0 C 0,0 C 79 % 0 cb 1023,5 hPa 0,0 l/m 0,0 km/h (0 Bft) N-NW 345 0 min 0,000 mm 0 W/m 7,5 C 11,0 C 0,0 km/h (0 Bft) 0,00 %
24.06.2011 23:47 11,0 C 0,0 C 0,0 C 80 % 0 cb 1023,5 hPa 0,0 l/m 0,0 km/h (0 Bft) N-NW 340 0 min 0,000 mm 0 W/m 7,7 C 11,0 C 0,0 km/h (0 Bft) 0,00 %
24.06.2011 23:52 10,9 C 0,0 C 0,0 C 80 % 0 cb 1023,5 hPa 0,0 l/m 0,0 km/h (0 Bft) N-NW 340 0 min 0,000 mm 0 W/m 7,6 C 10,9 C 0,0 km/h (0 Bft) 0,00 %
24.06.2011 23:57 10,7 C 0,0 C 0,0 C 81 % 0 cb 1023,5 hPa 0,0 l/m 0,0 km/h (0 Bft) S-SO 155 0 min 0,000 mm 0 W/m 7,6 C 10,7 C 0,0 km/h (0 Bft) 0,00 %
_ Min-Zeit 06:02 00:02 00:02 18:17 00:02 00:02 - 00:02 - - - - - 06:02 06:02 00:02 00:02
Minimum _ 6,4 C 0,0 C 0,0 C 46 % 0 cb 1018,5 hPa - 0,0 km/h (0 Bft) - - - - - 4,2 C 6,4 C 0,0 km/h (0 Bft) 0,00 %
_ Max-Zeit 18:22 00:02 00:02 06:22 10:27 22:12 04:22 10:32 - - 00:02 00:02 00:02 14:07 18:22 10:32 00:02
Maximum _ 18,3 C 0,0 C 0,0 C 87 % 8 cb 1023,5 hPa 0,3 l/m 23,9 km/h
W-SW (4 Bft)
- - 0 min 0,000 mm 0 W/m 9,3 C 18,3 C 23,9 km/h
W-SW (4 Bft)
0,00 %
Durchschnitt _ 12,5 C 0,0 C 0,0 C 71 % 2 cb 1020,7 hPa #0,3 l/m 6,3 km/h (2 Bft) W - #0 min. #0,000 mm 0 W/m 7,2 C 12,5 C 6,3 km/h (2 Bft) 0,00 %
Wetterstation Gdesweiler